^^
Datos históricos de la estación: Murcia-Puente Tocinos
Diario Informe para Abril 27, 2019 Unidades:  Métrico    Inglés   Ambas
Diario Semanal Mensual Anual Configurable
  Máximo: Mínimo: Media:
Temperatura: 23.1 °C 13.2 °C 17.9 °C
Punto de rocio: 10.7 °C 5.4 °C 7.8 °C
Humedad: 75% 37% 53%
Velocidad viento: 15.6km/h 0.0km/h 8km/h
Racha viento: 27.8km/h - -
Viento- - SSE
Presión: 1025.0 hPa 1021.8 hPa -
Precipitación: 0.0 mm    
Historical Graphs
 
 
Tabla de datos para Abril 27, 2019
Hora Temperatura Punto de rocio Presión Viento Velocidad viento Racha viento Humedad Intensidad lluvia(por hora) Nubes
00:00 16.5 °C 9.7 °C 1023.8 hPa NE 3.2 km/h 4.8 km/h 64% 0.0 mm CLR
00:05 16.4 °C 9.8 °C 1023.9 hPa NE 2.9 km/h 5.6 km/h 65% 0.0 mm CLR
00:10 16.3 °C 9.7 °C 1023.9 hPa NE 2.9 km/h 3.7 km/h 65% 0.0 mm CLR
00:15 16.1 °C 9.7 °C 1023.9 hPa North 2.9 km/h 3.7 km/h 66% 0.0 mm CLR
00:20 16.0 °C 9.7 °C 1023.9 hPa North 2.3 km/h   66% 0.0 mm CLR
00:25 15.8 °C 9.7 °C 1023.9 hPa North 2.3 km/h 3.7 km/h 67% 0.0 mm CLR
00:30 15.7 °C 9.6 °C 1023.9 hPa North 2.3 km/h   67% 0.0 mm CLR
00:35 15.6 °C 9.7 °C 1023.9 hPa North 2.3 km/h 3.9 km/h 68% 0.0 mm CLR
00:40 15.4 °C 9.7 °C 1023.9 hPa North 2.3 km/h 3.7 km/h 69% 0.0 mm CLR
00:45 15.3 °C 9.7 °C 1023.9 hPa North 2.3 km/h   69% 0.0 mm CLR
00:50 15.3 °C 9.7 °C 1023.9 hPa Calm     69% 0.0 mm CLR
00:55 15.2 °C 9.8 °C 1023.9 hPa Calm     70% 0.0 mm CLR
01:00 15.2 °C 10.0 °C 1023.9 hPa Calm   6.4 km/h 71% 0.0 mm CLR
01:05 15.2 °C 10.2 °C 1023.8 hPa Calm   1.9 km/h 72% 0.0 mm CLR
01:10 15.2 °C 10.2 °C 1023.8 hPa West 2.9 km/h   72% 0.0 mm CLR
01:15 15.2 °C 10.2 °C 1023.8 hPa West 2.9 km/h 5.6 km/h 72% 0.0 mm CLR
01:20 15.1 °C 10.3 °C 1023.9 hPa West 3.2 km/h 7.4 km/h 73% 0.0 mm CLR
01:25 15.1 °C 10.5 °C 1023.9 hPa West 3.2 km/h 7.4 km/h 74% 0.0 mm CLR
01:30 15.1 °C 10.7 °C 1023.9 hPa West 5.0 km/h 7.4 km/h 75% 0.0 mm CLR
01:35 15.0 °C 10.6 °C 1023.9 hPa West 5.0 km/h 5.6 km/h 75% 0.0 mm CLR
01:40 14.9 °C 10.5 °C 1023.9 hPa WSW 4.7 km/h 5.6 km/h 75% 0.0 mm CLR
01:45 15.0 °C 10.6 °C 1023.9 hPa ESE 4.7 km/h 8.4 km/h 75% 0.0 mm CLR
01:50 14.9 °C 10.3 °C 1023.9 hPa SSE 3.9 km/h 9.3 km/h 74% 0.0 mm CLR
01:55 14.7 °C 9.9 °C 1023.9 hPa SSE 3.9 km/h 7.4 km/h 73% 0.0 mm CLR
02:00 14.7 °C 9.9 °C 1023.9 hPa SSE 4.8 km/h 9.7 km/h 73% 0.0 mm CLR
02:05 14.9 °C 10.1 °C 1023.8 hPa SW 5.8 km/h 9.3 km/h 73% 0.0 mm CLR
02:10 15.0 °C 10.2 °C 1023.8 hPa SW 5.8 km/h 7.4 km/h 73% 0.0 mm CLR
02:15 15.1 °C 10.3 °C 1023.8 hPa SW 5.8 km/h 7.4 km/h 73% 0.0 mm CLR
02:20 15.2 °C 10.4 °C 1023.6 hPa WSW 3.9 km/h 7.6 km/h 73% 0.0 mm CLR
02:25 15.2 °C 10.4 °C 1023.6 hPa SW 3.9 km/h 7.4 km/h 73% 0.0 mm CLR
02:30 15.3 °C 10.5 °C 1023.6 hPa SW 5.0 km/h 8.4 km/h 73% 0.0 mm CLR
02:35 15.3 °C 10.5 °C 1023.6 hPa SW 5.0 km/h 7.4 km/h 73% 0.0 mm CLR
02:40 15.3 °C 10.5 °C 1023.6 hPa SSW 3.9 km/h 6.4 km/h 73% 0.0 mm CLR
02:45 15.2 °C 10.2 °C 1023.6 hPa South 3.9 km/h 7.4 km/h 72% 0.0 mm CLR
02:50 14.9 °C 9.7 °C 1023.5 hPa SSE 4.7 km/h 9.3 km/h 71% 0.0 mm CLR
02:55 14.7 °C 9.5 °C 1023.5 hPa South 4.7 km/h 11.1 km/h 71% 0.0 mm CLR
03:00 14.6 °C 9.2 °C 1023.5 hPa South 8.0 km/h 12.9 km/h 70% 0.0 mm CLR
03:05 14.4 °C 9.0 °C 1023.3 hPa SSW 7.6 km/h 9.3 km/h 70% 0.0 mm CLR
03:10 14.4 °C 9.0 °C 1023.3 hPa SSW 7.6 km/h 11.1 km/h 70% 0.0 mm CLR
03:15 14.4 °C 9.0 °C 1023.3 hPa SSW 7.6 km/h 11.1 km/h 70% 0.0 mm CLR
03:20 14.4 °C 9.0 °C 1023.2 hPa SSE 8.7 km/h 13.0 km/h 70% 0.0 mm CLR
03:25 14.2 °C 8.4 °C 1023.2 hPa South 8.7 km/h 13.0 km/h 68% 0.0 mm CLR
03:30 14.2 °C 8.2 °C 1023.2 hPa SSW 10.0 km/h 16.7 km/h 67% 0.0 mm CLR
03:35 14.1 °C 7.8 °C 1023.0 hPa SSW 10.0 km/h 14.8 km/h 66% 0.0 mm CLR
03:40 14.1 °C 7.6 °C 1023.0 hPa SSW 11.1 km/h 13.0 km/h 65% 0.0 mm CLR
03:45 14.2 °C 7.5 °C 1023.0 hPa SSW 11.1 km/h 14.8 km/h 64% 0.0 mm CLR
03:50 14.3 °C 7.3 °C 1022.9 hPa SSW 8.7 km/h 13.0 km/h 63% 0.0 mm CLR
03:55 14.4 °C 6.9 °C 1022.9 hPa SSW 8.7 km/h 11.1 km/h 61% 0.0 mm CLR
04:00 14.6 °C 6.9 °C 1022.9 hPa SSW 8.0 km/h 12.9 km/h 60% 0.0 mm CLR
04:05 14.7 °C 6.8 °C 1022.8 hPa SSW 8.4 km/h 11.1 km/h 59% 0.0 mm CLR
04:10 14.7 °C 6.5 °C 1022.8 hPa SW 7.6 km/h 9.5 km/h 58% 0.0 mm CLR
04:15 14.7 °C 6.5 °C 1022.8 hPa SSW 7.6 km/h 9.3 km/h 58% 0.0 mm CLR
04:20 14.7 °C 6.5 °C 1022.8 hPa South 5.8 km/h 7.6 km/h 58% 0.0 mm CLR
04:25 14.6 °C 6.7 °C 1022.8 hPa SE 5.8 km/h 16.7 km/h 59% 0.0 mm CLR
04:30 14.3 °C 6.6 °C 1022.8 hPa South 8.7 km/h 16.7 km/h 60% 0.0 mm CLR
04:35 14.2 °C 6.3 °C 1022.8 hPa South 8.7 km/h 22.2 km/h 59% 0.0 mm CLR
04:40 14.2 °C 6.3 °C 1022.8 hPa SW 12.2 km/h 16.7 km/h 59% 0.0 mm CLR
04:45 14.2 °C 6.1 °C 1022.8 hPa South 12.2 km/h 16.7 km/h 58% 0.0 mm CLR
04:50 14.3 °C 5.9 °C 1022.8 hPa SW 10.0 km/h 13.0 km/h 57% 0.0 mm CLR
04:55 14.4 °C 6.0 °C 1022.8 hPa SSW 10.0 km/h 11.1 km/h 57% 0.0 mm CLR
05:00 14.4 °C 5.8 °C 1022.8 hPa SSW 9.7 km/h 14.5 km/h 56% 0.0 mm CLR
05:05 14.6 °C 5.7 °C 1022.7 hPa SW 8.7 km/h 11.1 km/h 55% 0.0 mm CLR
05:10 14.6 °C 5.7 °C 1022.7 hPa SW 8.4 km/h 7.4 km/h 55% 0.0 mm CLR
05:15 14.7 °C 5.7 °C 1022.7 hPa WSW 8.4 km/h 7.4 km/h 55% 0.0 mm CLR
05:20 14.6 °C 5.7 °C 1022.8 hPa WSW 5.8 km/h 3.7 km/h 55% 0.0 mm CLR
05:25 14.6 °C 5.9 °C 1022.8 hPa WSW 5.8 km/h 5.8 km/h 56% 0.0 mm CLR
05:30 14.4 °C 5.7 °C 1022.8 hPa WSW 3.9 km/h 11.1 km/h 56% 0.0 mm CLR
05:35 14.3 °C 5.9 °C 1022.8 hPa West 3.9 km/h 7.4 km/h 57% 0.0 mm CLR
05:40 14.2 °C 5.6 °C 1022.8 hPa SW 5.8 km/h 7.4 km/h 56% 0.0 mm CLR
05:45 14.2 °C 5.8 °C 1022.8 hPa West 5.8 km/h 7.4 km/h 57% 0.0 mm CLR
05:50 14.0 °C 5.6 °C 1022.9 hPa SW 5.0 km/h 11.1 km/h 57% 0.0 mm CLR
05:55 13.9 °C 5.5 °C 1022.9 hPa West 5.0 km/h 9.3 km/h 57% 0.0 mm CLR
06:00 13.9 °C 5.8 °C 1022.9 hPa WSW 8.0 km/h 9.7 km/h 58% 0.0 mm CLR
06:05 13.9 °C 5.5 °C 1023.0 hPa SW 6.4 km/h 11.1 km/h 57% 0.0 mm CLR
06:10 14.0 °C 5.6 °C 1023.0 hPa WSW 6.9 km/h 7.4 km/h 57% 0.0 mm CLR
06:15 13.9 °C 5.5 °C 1023.0 hPa WSW 6.9 km/h 11.1 km/h 57% 0.0 mm CLR
06:20 14.1 °C 5.4 °C 1023.1 hPa West 6.9 km/h 11.1 km/h 56% 0.0 mm CLR
06:25 14.1 °C 5.4 °C 1023.1 hPa WSW 6.9 km/h 7.4 km/h 56% 0.0 mm CLR
06:30 14.0 °C 5.6 °C 1023.1 hPa WSW 5.8 km/h 7.6 km/h 57% 0.0 mm CLR
06:35 13.9 °C 5.5 °C 1023.2 hPa SW 5.8 km/h 7.4 km/h 57% 0.0 mm CLR
06:40 13.8 °C 5.7 °C 1023.2 hPa West 5.8 km/h 9.3 km/h 58% 0.0 mm CLR
06:45 13.6 °C 5.5 °C 1023.2 hPa WSW 5.8 km/h 9.3 km/h 58% 0.0 mm CLR
06:50 13.6 °C 5.5 °C 1023.4 hPa WSW 5.8 km/h 9.3 km/h 58% 0.0 mm CLR
06:55 13.6 °C 5.5 °C 1023.4 hPa WSW 5.8 km/h 6.4 km/h 58% 0.0 mm CLR
07:00 13.6 °C 5.5 °C 1023.4 hPa WSW 3.2 km/h 8.0 km/h 58% 0.0 mm CLR
07:05 13.5 °C 5.6 °C 1023.5 hPa West 4.7 km/h 5.6 km/h 59% 0.0 mm CLR
07:10 13.4 °C 5.8 °C 1023.5 hPa West 3.9 km/h 7.4 km/h 60% 0.0 mm CLR
07:15 13.3 °C 5.7 °C 1023.5 hPa SSE 3.9 km/h 7.4 km/h 60% 0.0 mm CLR
07:20 13.2 °C 5.8 °C 1023.6 hPa SSE 3.2 km/h 3.9 km/h 61% 0.0 mm CLR
07:25 13.2 °C 5.8 °C 1023.6 hPa West 3.2 km/h 5.6 km/h 61% 0.0 mm CLR
07:30 13.2 °C 5.8 °C 1023.6 hPa West 3.2 km/h 5.6 km/h 61% 0.0 mm CLR
07:35 13.3 °C 5.7 °C 1023.8 hPa South 3.2 km/h 5.6 km/h 60% 0.0 mm CLR
07:40 13.4 °C 5.8 °C 1023.8 hPa South 3.9 km/h 3.9 km/h 60% 0.0 mm CLR
07:45 13.5 °C 5.9 °C 1023.8 hPa South 3.9 km/h 7.4 km/h 60% 0.0 mm CLR
07:50 13.7 °C 5.8 °C 1024.0 hPa SW 3.9 km/h 9.3 km/h 59% 0.0 mm CLR
07:55 13.8 °C 5.9 °C 1024.0 hPa SW 3.9 km/h 7.4 km/h 59% 0.0 mm CLR
08:00 13.9 °C 6.0 °C 1024.0 hPa SW 4.8 km/h 8.0 km/h 59% 0.0 mm CLR
08:05 14.1 °C 5.9 °C 1024.2 hPa WSW 5.0 km/h 7.4 km/h 58% 0.0 mm CLR
08:10 14.2 °C 5.8 °C 1024.2 hPa SW 4.7 km/h 7.4 km/h 57% 0.0 mm CLR
08:15 14.3 °C 5.9 °C 1024.2 hPa SW 4.7 km/h 7.4 km/h 57% 0.0 mm CLR
08:20 14.4 °C 5.7 °C 1024.2 hPa WSW 3.9 km/h 7.4 km/h 56% 0.0 mm CLR
08:25 14.6 °C 5.9 °C 1024.2 hPa WSW 3.9 km/h 7.4 km/h 56% 0.0 mm CLR
08:30 14.7 °C 5.7 °C 1024.2 hPa SW 4.7 km/h 9.3 km/h 55% 0.0 mm CLR
08:35 14.8 °C 5.8 °C 1024.5 hPa SW 4.7 km/h 9.3 km/h 55% 0.0 mm CLR
08:40 14.8 °C 5.6 °C 1024.5 hPa WSW 5.8 km/h 9.3 km/h 54% 0.0 mm CLR
08:45 14.9 °C 5.7 °C 1024.5 hPa WSW 5.8 km/h 9.3 km/h 54% 0.0 mm CLR
08:50 15.1 °C 5.8 °C 1024.6 hPa West 5.0 km/h 7.4 km/h 54% 0.0 mm CLR
08:55 15.2 °C 5.9 °C 1024.6 hPa South 5.0 km/h 7.4 km/h 54% 0.0 mm CLR
09:00 15.4 °C 5.8 °C 1024.6 hPa SSW 3.2 km/h 9.7 km/h 53% 0.0 mm CLR
09:05 15.6 °C 6.1 °C 1024.8 hPa SSW 4.7 km/h 9.3 km/h 53% 0.0 mm CLR
09:10 15.7 °C 5.9 °C 1024.8 hPa NW 5.8 km/h 9.3 km/h 52% 0.0 mm CLR
09:15 15.8 °C 5.7 °C 1024.8 hPa West 5.8 km/h 9.3 km/h 51% 0.0 mm CLR
09:20 15.8 °C 5.4 °C 1024.8 hPa WSW 8.4 km/h 11.1 km/h 50% 0.0 mm CLR
09:25 15.9 °C 5.8 °C 1024.8 hPa WSW 8.4 km/h 9.5 km/h 51% 0.0 mm CLR
09:30 16.1 °C 5.4 °C 1024.8 hPa WSW 6.9 km/h 11.9 km/h 49% 0.0 mm CLR
09:35 16.1 °C 5.4 °C 1024.9 hPa SSW 6.9 km/h 14.8 km/h 49% 0.0 mm CLR
09:40 16.2 °C 5.4 °C 1024.9 hPa SSW 8.4 km/h 9.3 km/h 49% 0.0 mm CLR
09:45 16.3 °C 5.8 °C 1024.9 hPa West 8.4 km/h 11.1 km/h 50% 0.0 mm CLR
09:50 16.5 °C 5.7 °C 1024.8 hPa West 6.4 km/h 9.3 km/h 49% 0.0 mm CLR
09:55 16.6 °C 5.8 °C 1024.8 hPa SW 6.4 km/h 9.3 km/h 49% 0.0 mm CLR
10:00 16.7 °C 5.6 °C 1024.8 hPa WSW 8.0 km/h 9.7 km/h 48% 0.0 mm CLR
10:05 16.7 °C 5.6 °C 1024.8 hPa SW 6.4 km/h 8.4 km/h 48% 0.0 mm CLR
10:10 16.9 °C 5.8 °C 1024.8 hPa West 5.0 km/h 7.4 km/h 48% 0.0 mm CLR
10:15 17.1 °C 5.7 °C 1024.8 hPa WNW 5.0 km/h 11.1 km/h 47% 0.0 mm CLR
10:20 17.2 °C 6.1 °C 1024.8 hPa ESE 6.4 km/h 7.4 km/h 48% 0.0 mm CLR
10:25 17.5 °C 5.7 °C 1024.8 hPa WNW 6.4 km/h 7.4 km/h 46% 0.0 mm CLR
10:30 17.7 °C 5.6 °C 1024.8 hPa West 3.9 km/h 9.3 km/h 45% 0.0 mm CLR
10:35 17.7 °C 5.9 °C 1024.8 hPa WNW 3.9 km/h 7.4 km/h 46% 0.0 mm CLR
10:40 17.8 °C 6.0 °C 1024.8 hPa WNW 3.9 km/h 7.4 km/h 46% 0.0 mm CLR
10:45 18.0 °C 5.9 °C 1024.8 hPa SW 3.9 km/h 11.1 km/h 45% 0.0 mm CLR
10:50 18.0 °C 5.9 °C 1024.9 hPa South 5.0 km/h 7.4 km/h 45% 0.0 mm CLR
10:55 18.2 °C 5.7 °C 1024.9 hPa East 5.0 km/h 7.4 km/h 44% 0.0 mm CLR
11:00 18.4 °C 5.9 °C 1024.9 hPa SE 3.2 km/h 4.8 km/h 44% 0.0 mm CLR
11:05 18.8 °C 6.3 °C 1024.9 hPa WSW 3.9 km/h 5.8 km/h 44% 0.0 mm CLR
11:10 18.9 °C 6.4 °C 1024.9 hPa NW 3.2 km/h 7.4 km/h 44% 0.0 mm CLR
11:15 18.8 °C 5.9 °C 1024.9 hPa NW 3.2 km/h 9.3 km/h 43% 0.0 mm CLR
11:20 18.9 °C 6.1 °C 1024.9 hPa NNE 5.0 km/h 3.7 km/h 43% 0.0 mm CLR
11:25 19.3 °C 6.1 °C 1024.9 hPa SSW 5.0 km/h 7.4 km/h 42% 0.0 mm CLR
11:30 19.3 °C 6.1 °C 1024.9 hPa ESE 3.9 km/h 7.4 km/h 42% 0.0 mm CLR
11:35 19.5 °C 6.2 °C 1025.0 hPa East 3.9 km/h 3.9 km/h 42% 0.0 mm CLR
11:40 19.8 °C 6.5 °C 1025.0 hPa WSW 3.2 km/h 7.4 km/h 42% 0.0 mm CLR
11:45 19.9 °C 6.2 °C 1025.0 hPa WNW 3.2 km/h 9.3 km/h 41% 0.0 mm CLR
11:50 19.8 °C 6.2 °C 1025.0 hPa WNW 4.7 km/h 7.4 km/h 41% 0.0 mm CLR
11:55 19.7 °C 6.1 °C 1025.0 hPa West 4.7 km/h 7.6 km/h 41% 0.0 mm CLR
12:00 19.7 °C 6.1 °C 1025.0 hPa NW 4.8 km/h 8.0 km/h 41% 0.0 mm CLR
12:05 19.9 °C 6.2 °C 1024.9 hPa WNW 5.0 km/h 7.4 km/h 41% 0.0 mm CLR
12:10 20.1 °C 6.4 °C 1024.9 hPa WNW 5.0 km/h 3.7 km/h 41% 0.0 mm CLR
12:15 20.5 °C 6.8 °C 1024.9 hPa East 5.0 km/h 5.8 km/h 41% 0.0 mm CLR
12:20 20.8 °C 6.7 °C 1024.8 hPa ESE 2.9 km/h 7.4 km/h 40% 0.0 mm CLR
12:25 20.8 °C 6.7 °C 1024.8 hPa East 2.9 km/h 14.8 km/h 40% 0.0 mm CLR
12:30 20.9 °C 6.8 °C 1024.8 hPa ENE 6.4 km/h 11.1 km/h 40% 0.0 mm CLR
12:35 20.9 °C 6.8 °C 1024.8 hPa ENE 6.4 km/h 16.7 km/h 40% 0.0 mm CLR
12:40 20.9 °C 6.8 °C 1024.8 hPa East 8.7 km/h 11.1 km/h 40% 0.0 mm CLR
12:45 20.8 °C 7.1 °C 1024.8 hPa NE 8.7 km/h 14.8 km/h 41% 0.0 mm CLR
12:50 20.8 °C 6.7 °C 1024.7 hPa NE 10.0 km/h 11.9 km/h 40% 0.0 mm CLR
12:55 21.0 °C 6.5 °C 1024.7 hPa NE 10.0 km/h 16.7 km/h 39% 0.0 mm CLR
13:00 21.2 °C 6.3 °C 1024.7 hPa ENE 9.7 km/h 19.3 km/h 38% 0.0 mm CLR
13:05 21.1 °C 6.9 °C 1024.5 hPa NNW 9.5 km/h 14.8 km/h 40% 0.0 mm CLR
13:10 21.2 °C 7.1 °C 1024.5 hPa NE 10.0 km/h 16.7 km/h 40% 0.0 mm CLR
13:15 21.2 °C 7.1 °C 1024.5 hPa NE 10.0 km/h 20.4 km/h 40% 0.0 mm CLR
13:20 21.2 °C 7.1 °C 1024.3 hPa NE 9.5 km/h 20.4 km/h 40% 0.0 mm CLR
13:25 21.4 °C 7.2 °C 1024.3 hPa ENE 9.5 km/h 8.4 km/h 40% 0.0 mm CLR
13:30 21.6 °C 7.4 °C 1024.3 hPa NE 8.7 km/h 11.1 km/h 40% 0.0 mm CLR
13:35 21.8 °C 7.2 °C 1024.3 hPa ESE 8.7 km/h 13.0 km/h 39% 0.0 mm CLR
13:40 21.9 °C 7.3 °C 1024.3 hPa ENE 7.6 km/h 18.5 km/h 39% 0.0 mm CLR
13:45 21.9 °C 7.7 °C 1024.3 hPa ENE 7.6 km/h 20.1 km/h 40% 0.0 mm CLR
13:50 21.8 °C 7.2 °C 1024.0 hPa NNE 11.1 km/h 20.4 km/h 39% 0.0 mm CLR
13:55 21.9 °C 8.1 °C 1024.0 hPa NE 11.1 km/h 16.7 km/h 41% 0.0 mm CLR
14:00 21.9 °C 7.7 °C 1024.0 hPa NE 11.3 km/h 19.3 km/h 40% 0.0 mm CLR
14:05 21.9 °C 7.7 °C 1023.8 hPa NE 10.3 km/h 16.7 km/h 40% 0.0 mm CLR
14:10 21.9 °C 8.1 °C 1023.8 hPa NNE 8.7 km/h 11.1 km/h 41% 0.0 mm CLR
14:15 22.0 °C 8.1 °C 1023.8 hPa ENE 8.7 km/h 20.1 km/h 41% 0.0 mm CLR
14:20 22.2 °C 7.9 °C 1023.6 hPa NNE 11.1 km/h 14.8 km/h 40% 0.0 mm CLR
14:25 22.2 °C 7.6 °C 1023.6 hPa NE 11.1 km/h 11.1 km/h 39% 0.0 mm CLR
14:30 22.2 °C 7.6 °C 1023.6 hPa NE 10.0 km/h 20.4 km/h 39% 0.0 mm CLR
14:35 22.2 °C 7.6 °C 1023.5 hPa East 10.0 km/h 18.5 km/h 39% 0.0 mm CLR
14:40 22.4 °C 8.1 °C 1023.5 hPa ESE 11.1 km/h 18.0 km/h 40% 0.0 mm CLR
14:45 22.6 °C 7.9 °C 1023.5 hPa NNE 11.1 km/h 18.5 km/h 39% 0.0 mm CLR
14:50 22.5 °C 7.8 °C 1023.5 hPa WNW 10.0 km/h 13.0 km/h 39% 0.0 mm CLR
14:55 22.6 °C 8.3 °C 1023.5 hPa NNE 10.0 km/h 16.7 km/h 40% 0.0 mm CLR
15:00 22.7 °C 8.4 °C 1023.5 hPa NE 9.7 km/h 22.5 km/h 40% 0.0 mm CLR
15:05 22.8 °C 8.5 °C 1023.4 hPa NE 9.5 km/h 16.7 km/h 40% 0.0 mm CLR
15:10 22.7 °C 8.4 °C 1023.4 hPa NE 12.2 km/h 20.9 km/h 40% 0.0 mm CLR
15:15 22.4 °C 7.8 °C 1023.4 hPa NE 12.2 km/h 20.4 km/h 39% 0.0 mm CLR
15:20 22.5 °C 8.2 °C 1023.3 hPa ENE 14.0 km/h 18.5 km/h 40% 0.0 mm CLR
15:25 22.6 °C 7.9 °C 1023.3 hPa ENE 14.0 km/h 18.5 km/h 39% 0.0 mm CLR
15:30 22.6 °C 7.9 °C 1023.3 hPa ENE 11.9 km/h 11.1 km/h 39% 0.0 mm CLR
15:35 22.6 °C 7.9 °C 1023.1 hPa ENE 11.9 km/h 22.2 km/h 39% 0.0 mm CLR
15:40 22.6 °C 8.3 °C 1023.1 hPa East 13.0 km/h 18.5 km/h 40% 0.0 mm CLR
15:45 22.6 °C 8.7 °C 1023.1 hPa East 13.0 km/h 22.2 km/h 41% 0.0 mm CLR
15:50 22.6 °C 8.7 °C 1023.0 hPa West 14.0 km/h 18.5 km/h 41% 0.0 mm CLR
15:55 22.6 °C 8.3 °C 1023.0 hPa NE 14.0 km/h 14.8 km/h 40% 0.0 mm CLR
16:00 22.7 °C 8.8 °C 1023.0 hPa NE 12.9 km/h 22.5 km/h 41% 0.0 mm CLR
16:05 22.7 °C 8.0 °C 1022.8 hPa NE 13.7 km/h 22.2 km/h 39% 0.0 mm CLR
16:10 22.6 °C 8.7 °C 1022.8 hPa ENE 13.0 km/h 25.9 km/h 41% 0.0 mm CLR
16:15 22.4 °C 8.1 °C 1022.8 hPa NE 13.0 km/h 22.2 km/h 40% 0.0 mm CLR
16:20 22.3 °C 8.1 °C 1022.6 hPa NE 15.6 km/h 16.7 km/h 40% 0.0 mm CLR
16:25 22.4 °C 8.1 °C 1022.6 hPa ENE 15.6 km/h 16.7 km/h 40% 0.0 mm CLR
16:30 22.7 °C 8.4 °C 1022.6 hPa NE 10.3 km/h 14.8 km/h 40% 0.0 mm CLR
16:35 22.8 °C 8.5 °C 1022.3 hPa East 10.3 km/h 20.4 km/h 40% 0.0 mm CLR
16:40 22.7 °C 8.0 °C 1022.3 hPa NE 11.9 km/h 14.8 km/h 39% 0.0 mm CLR
16:45 22.8 °C 8.1 °C 1022.3 hPa ESE 11.9 km/h 18.0 km/h 39% 0.0 mm CLR
16:50 22.8 °C 8.1 °C 1022.3 hPa ENE 12.2 km/h 13.0 km/h 39% 0.0 mm CLR
16:55 23.1 °C 8.4 °C 1022.3 hPa ENE 12.2 km/h 27.8 km/h 39% 0.0 mm CLR
17:00 23.1 °C 8.4 °C 1022.3 hPa ENE 9.7 km/h 25.7 km/h 39% 0.0 mm CLR
17:05 22.8 °C 8.1 °C 1022.1 hPa ESE 9.5 km/h 27.8 km/h 39% 0.0 mm CLR
17:10 22.5 °C 8.2 °C 1022.1 hPa SE 13.7 km/h 18.5 km/h 40% 0.0 mm CLR
17:15 22.5 °C 7.8 °C 1022.1 hPa SE 13.7 km/h 24.1 km/h 39% 0.0 mm CLR
17:20 22.4 °C 7.8 °C 1022.0 hPa SE 14.8 km/h 20.4 km/h 39% 0.0 mm CLR
17:25 22.6 °C 7.6 °C 1022.0 hPa SSE 14.8 km/h 19.8 km/h 38% 0.0 mm CLR
17:30 22.7 °C 7.7 °C 1022.0 hPa SE 13.7 km/h 20.4 km/h 38% 0.0 mm CLR
17:35 22.7 °C 7.7 °C 1022.0 hPa ESE 13.7 km/h 20.4 km/h 38% 0.0 mm CLR
17:40 22.7 °C 7.3 °C 1022.0 hPa East 13.0 km/h 18.5 km/h 37% 0.0 mm CLR
17:45 22.7 °C 7.7 °C 1022.0 hPa ESE 13.0 km/h 24.1 km/h 38% 0.0 mm CLR
17:50 22.7 °C 7.3 °C 1021.9 hPa SE 13.0 km/h 22.2 km/h 37% 0.0 mm CLR
17:55 22.6 °C 7.2 °C 1021.9 hPa SSE 13.0 km/h 20.4 km/h 37% 0.0 mm CLR
18:00 22.6 °C 7.6 °C 1021.9 hPa SE 12.9 km/h 22.5 km/h 38% 0.0 mm CLR
18:05 22.6 °C 7.6 °C 1021.9 hPa SE 13.7 km/h 18.5 km/h 38% 0.0 mm CLR
18:10 22.7 °C 7.7 °C 1021.9 hPa SSE 13.0 km/h 22.2 km/h 38% 0.0 mm CLR
18:15 22.6 °C 7.6 °C 1021.9 hPa ESE 13.0 km/h 16.7 km/h 38% 0.0 mm CLR
18:20 22.7 °C 7.7 °C 1021.8 hPa SE 11.9 km/h 25.9 km/h 38% 0.0 mm CLR
18:25 22.3 °C 7.7 °C 1021.8 hPa SE 11.9 km/h 20.4 km/h 39% 0.0 mm CLR
18:30 22.2 °C 7.6 °C 1021.8 hPa SE 15.6 km/h 16.7 km/h 39% 0.0 mm CLR
18:35 22.4 °C 7.8 °C 1021.9 hPa ESE 15.6 km/h 18.5 km/h 39% 0.0 mm CLR
18:40 22.6 °C 7.9 °C 1021.9 hPa SSE 10.3 km/h 16.7 km/h 39% 0.0 mm CLR
18:45 22.4 °C 7.8 °C 1021.9 hPa SSE 10.3 km/h 16.7 km/h 39% 0.0 mm CLR
18:50 22.3 °C 7.7 °C 1021.9 hPa SSE 13.0 km/h 20.4 km/h 39% 0.0 mm CLR
18:55 22.2 °C 7.9 °C 1021.9 hPa SSE 13.0 km/h 20.4 km/h 40% 0.0 mm CLR
19:00 22.1 °C 7.9 °C 1021.9 hPa SE 12.9 km/h 20.9 km/h 40% 0.0 mm CLR
19:05 22.2 °C 7.9 °C 1021.9 hPa SE 13.7 km/h 16.7 km/h 40% 0.0 mm CLR
19:10 22.1 °C 8.2 °C 1021.9 hPa ESE 11.1 km/h 18.5 km/h 41% 0.0 mm CLR
19:15 22.1 °C 8.2 °C 1021.9 hPa East 11.1 km/h 14.8 km/h 41% 0.0 mm CLR
19:20 22.1 °C 7.9 °C 1022.0 hPa SE 10.3 km/h 18.5 km/h 40% 0.0 mm CLR
19:25 22.1 °C 8.6 °C 1022.0 hPa ESE 10.3 km/h 14.8 km/h 42% 0.0 mm CLR
19:30 21.9 °C 8.4 °C 1022.0 hPa East 10.3 km/h 14.8 km/h 42% 0.0 mm CLR
19:35 21.7 °C 8.2 °C 1021.9 hPa ESE 10.3 km/h 18.5 km/h 42% 0.0 mm CLR
19:40 21.7 °C 8.2 °C 1021.9 hPa SE 11.9 km/h 13.0 km/h 42% 0.0 mm CLR
19:45 21.7 °C 8.6 °C 1021.9 hPa ESE 11.9 km/h 15.6 km/h 43% 0.0 mm CLR
19:50 21.6 °C 8.5 °C 1021.9 hPa SE 10.0 km/h 20.4 km/h 43% 0.0 mm CLR
19:55 21.3 °C 8.9 °C 1021.9 hPa SE 10.0 km/h 16.7 km/h 45% 0.0 mm CLR
20:00 21.3 °C 8.9 °C 1021.9 hPa ESE 11.3 km/h 16.1 km/h 45% 0.0 mm CLR
20:05 21.3 °C 9.2 °C 1021.9 hPa ESE 11.1 km/h 16.4 km/h 46% 0.0 mm CLR
20:10 21.1 °C 9.3 °C 1021.9 hPa SE 9.5 km/h 16.7 km/h 47% 0.0 mm CLR
20:15 20.9 °C 9.5 °C 1021.9 hPa East 9.5 km/h 13.0 km/h 48% 0.0 mm CLR
20:20 20.7 °C 9.6 °C 1021.9 hPa ESE 8.4 km/h 11.1 km/h 49% 0.0 mm CLR
20:25 20.4 °C 9.3 °C 1021.9 hPa East 8.4 km/h 13.0 km/h 49% 0.0 mm CLR
20:30 20.3 °C 9.6 °C 1021.9 hPa North 8.4 km/h 9.3 km/h 50% 0.0 mm CLR
20:35 20.2 °C 9.7 °C 1022.0 hPa NE 8.4 km/h 9.5 km/h 51% 0.0 mm CLR
20:40 20.1 °C 10.2 °C 1022.0 hPa NE 8.4 km/h 11.1 km/h 53% 0.0 mm CLR
20:45 19.6 °C 10.3 °C 1022.0 hPa NE 8.4 km/h 16.7 km/h 55% 0.0 mm CLR
20:50 19.3 °C 10.1 °C 1022.2 hPa NNE 11.9 km/h 13.0 km/h 55% 0.0 mm CLR
20:55 19.1 °C 10.1 °C 1022.2 hPa NNW 11.9 km/h 11.1 km/h 56% 0.0 mm CLR
21:00 18.9 °C 10.2 °C 1022.2 hPa NE 9.7 km/h 19.3 km/h 57% 0.0 mm CLR
21:05 18.7 °C 10.0 °C 1022.3 hPa NE 10.0 km/h 18.5 km/h 57% 0.0 mm CLR
21:10 18.4 °C 10.0 °C 1022.3 hPa NNE 11.1 km/h 14.8 km/h 58% 0.0 mm CLR
21:15 18.3 °C 10.2 °C 1022.3 hPa NNE 11.1 km/h 18.5 km/h 59% 0.0 mm CLR
21:20 18.1 °C 9.9 °C 1022.5 hPa NE 10.3 km/h 16.7 km/h 59% 0.0 mm CLR
21:25 17.9 °C 10.0 °C 1022.5 hPa NE 10.3 km/h 16.7 km/h 60% 0.0 mm CLR
21:30 17.8 °C 9.9 °C 1022.5 hPa NE 11.9 km/h 16.7 km/h 60% 0.0 mm CLR
21:35 17.6 °C 10.0 °C 1022.6 hPa NE 11.9 km/h 24.1 km/h 61% 0.0 mm CLR
21:40 17.4 °C 10.1 °C 1022.6 hPa NE 13.0 km/h 19.0 km/h 62% 0.0 mm CLR
21:45 17.3 °C 10.2 °C 1022.6 hPa NE 13.0 km/h 14.8 km/h 63% 0.0 mm CLR
21:50 17.1 °C 10.2 °C 1022.7 hPa NE 11.1 km/h 13.7 km/h 64% 0.0 mm CLR
21:55 16.9 °C 10.3 °C 1022.7 hPa North 11.1 km/h 14.8 km/h 65% 0.0 mm CLR
22:00 16.8 °C 10.4 °C 1022.7 hPa NE 9.7 km/h 16.1 km/h 66% 0.0 mm CLR
22:05 16.7 °C 10.6 °C 1022.9 hPa NE 10.0 km/h 16.7 km/h 67% 0.0 mm CLR
22:10 16.6 °C 10.4 °C 1022.9 hPa NE 9.5 km/h 9.3 km/h 67% 0.0 mm CLR
22:15 16.4 °C 10.5 °C 1022.9 hPa NE 9.5 km/h 13.0 km/h 68% 0.0 mm CLR
22:20 16.4 °C 10.5 °C 1023.2 hPa NE 8.4 km/h 14.8 km/h 68% 0.0 mm CLR
22:25 16.3 °C 10.6 °C 1023.2 hPa NE 8.4 km/h 11.1 km/h 69% 0.0 mm CLR
22:30 16.2 °C 10.5 °C 1023.2 hPa NE 8.4 km/h 14.8 km/h 69% 0.0 mm CLR
22:35 16.0 °C 10.6 °C 1023.4 hPa NE 8.4 km/h 13.0 km/h 70% 0.0 mm CLR
22:40 15.9 °C 10.7 °C 1023.4 hPa NNE 9.5 km/h 11.1 km/h 71% 0.0 mm CLR
22:45 15.8 °C 10.6 °C 1023.4 hPa NE 9.5 km/h 13.0 km/h 71% 0.0 mm CLR
22:50 15.8 °C 10.6 °C 1023.5 hPa NNE 8.7 km/h 11.1 km/h 71% 0.0 mm CLR
22:55 15.7 °C 10.4 °C 1023.5 hPa NE 8.7 km/h 13.0 km/h 71% 0.0 mm CLR
23:00 15.7 °C 10.4 °C 1023.5 hPa NE 9.7 km/h 16.1 km/h 71% 0.0 mm CLR
23:05 15.6 °C 10.6 °C 1023.5 hPa NNE 8.7 km/h 11.1 km/h 72% 0.0 mm CLR
23:10 15.4 °C 10.4 °C 1023.5 hPa NNE 9.5 km/h 11.1 km/h 72% 0.0 mm CLR
23:15 15.4 °C 10.4 °C 1023.5 hPa NE 9.5 km/h 11.1 km/h 72% 0.0 mm CLR
23:20 15.4 °C 10.2 °C 1023.5 hPa NE 8.7 km/h 11.1 km/h 71% 0.0 mm CLR
23:25 15.4 °C 9.9 °C 1023.5 hPa NE 8.7 km/h 11.1 km/h 70% 0.0 mm CLR
23:30 15.4 °C 9.9 °C 1023.5 hPa NE 7.6 km/h 11.1 km/h 70% 0.0 mm CLR
23:35 15.4 °C 10.2 °C 1023.6 hPa NNE 7.6 km/h 9.5 km/h 71% 0.0 mm CLR
23:40 15.4 °C 10.2 °C 1023.6 hPa NE 7.6 km/h 9.3 km/h 71% 0.0 mm CLR
23:45 15.3 °C 10.1 °C 1023.6 hPa NE 7.6 km/h 10.0 km/h 71% 0.0 mm CLR
23:50 15.2 °C 10.2 °C 1023.6 hPa NE 6.9 km/h 11.1 km/h 72% 0.0 mm CLR
23:55 15.1 °C 10.1 °C 1023.6 hPa NE 6.9 km/h 11.1 km/h 72% 0.0 mm CLR
Murcia-Puente Tocinos, España
Compliments of Weather Underground - 2.75 mb

La estación de MeteoMurcia.com, publica sus datos en los siguientes proyectos:

Weather Underground PWS IMURCIAP2 Meteoclimatic www.awekas.at

W3Counter
Web Analytics